{"data":{"norad_id":65555,"epoch":"2026-09-20T11:56:39.044832Z","epoch_age_seconds":152711,"freshness":"FRESH","line1":"1 65555U 25201F   26263.49767413  .00000832  00000+0  12468-3 0  9992","line2":"2 65555  49.9924 317.0980 0013539 327.5929  32.4177 14.84464821 55940","mean_motion":14.84464821,"eccentricity":0.0013539,"inclination_deg":49.9924,"raan_deg":317.098,"arg_perigee_deg":327.5929,"mean_anomaly_deg":32.4177,"bstar":0.00012468,"rev_number":5594,"period_min":97.004656468043,"perigee_km":605.79783145325,"apogee_km":624.73456863834,"semimajor_km":6993.4032000458,"source":"CELESTRAK","updated_at":"2026-09-21T09:00:15.425504Z"}}